This demonstration page uses our WeatherBlox Daily Observations layout. Learn more.

Hourly Observations for October 3, 2017

Temp ( °F °C ) Dew Point ( °F °C ) Humidity (%) Winds ( mph kmh ) Pressure ( in mb ) Visibility ( mi km ) Precip ( " mm )
12:54 am 00:54 Clear 76 24.4 64 17.8 67 67 S 23 37 29.74 1007 10 16.09344 0 0
1:54 am 01:54 Mostly Clear 77 25 64 17.8 64 64 S 29 46 29.77 1008 10 16.09344 0 0
2:54 am 02:54 Mostly Cloudy 76 24.4 64 17.8 67 67 S 21 33 29.8 1009 10 16.09344 0 0
3:54 am 03:54 Cloudy 76 24.4 64 17.8 67 67 S 20 31 29.83 1010 10 16.09344 0 0
4:41 am 04:41 Cloudy with Nearby Thunderstorms 72 22.2 66 18.9 82 82 SSW 10 17 29.88 1012 10 16.09344 0.02 0.508
4:52 am 04:52 Cloudy with Nearby Thunderstorms 73 23 66 19 78 78 SSW 12 19 29.85 1011 9 14.484096 0.02 0.508
4:54 am 04:54 Cloudy with Nearby Thunderstorms 73 22.8 67 19.4 81 81 SW 12 19 29.88 1012 8 12.874752 0.02 0.508
5:21 am 05:21 Cloudy 70 21.1 66 18.9 87 87 WNW 7 11 29.91 1013 9 14.484096 0.02 0.508
5:31 am 05:31 Cloudy with Light Thunderstorms 69 20.6 66 18.9 90 90 N 3 6 29.91 1013 8 12.874752 0.02 0.508
5:52 am 05:52 Mostly Cloudy 70 21 66 19 88 88 SSE 9 15 29.88 1012 7 11.265408 0.02 0.508
5:54 am 05:54 Mostly Cloudy 69 20.6 67 19.4 93 93 S 13 20 29.85 1011 7 11.265408 0.02 0.508
6:54 am 06:54 Mostly Cloudy with Light Rain 71 21.7 67 19.4 87 87 S 12 19 29.88 1012 9 14.484096 0.001 0.001
7:54 am 07:54 Cloudy 72 22.2 66 18.9 82 82 S 12 19 29.91 1013 9 14.484096 0.001 0.001
8:24 am 08:24 Cloudy with Light Rain 72 22.2 67 19.4 84 84 WSW 12 19 29.97 1015 6 9.656064 0.001 0.001
8:54 am 08:54 Cloudy 68 20 65 18.3 90 90 NW 13 20 29.97 1015 10 16.09344 0.001 0.001
9:26 am 09:26 Cloudy 64 17.8 62 16.7 93 93 NW 12 19 30 1016 10 16.09344 0 0
9:52 am 09:52 Cloudy 63 17 59 15 88 88 NNW 9 15 30.06 1018 10 16.09344 0 0
9:54 am 09:54 Cloudy 63 17.2 59 15 87 87 NW 10 17 30.03 1017 10 16.09344 0 0
10:54 am 10:54 Cloudy with Light Rain 62 16.7 59 15 90 90 NW 8 13 30.09 1019 4 6.437376 0.001 0.001
11:03 am 11:03 Cloudy with Rain 62 16.7 59 15 90 90 NW 9 15 30.12 1020 2 3.218688 0.01 0.254
11:13 am 11:13 Cloudy with Light Rain 61 16.1 59 15 93 93 NW 10 17 30.12 1020 2 3.218688 0.02 0.508
11:26 am 11:26 Cloudy with Light Rain 61 16.1 60 15.6 97 97 NNW 13 20 30.15 1021 4 6.437376 0.02 0.508
11:54 am 11:54 Cloudy 60 15.6 58 14.4 93 93 NNW 16 26 30.12 1020 7 11.265408 0.03 0.762
12:36 pm 12:36 Cloudy with Mist and Fog 59 15 56 13.3 90 90 NNW 14 22 30.18 1022 5 8.04672 0 0
12:54 pm 12:54 Cloudy 59 15 56 13.3 90 90 NNW 14 22 30.15 1021 9 14.484096 0 0
1:54 pm 13:54 Cloudy 59 15 55 12.8 87 87 NNW 14 22 30.18 1022 10 16.09344 0 0
2:11 pm 14:11 Cloudy 60 15.6 55 12.8 84 84 N 14 22 30.21 1023 10 16.09344 0 0
2:54 pm 14:54 Cloudy 62 16.7 55 12.8 78 78 N 9 15 30.18 1022 10 16.09344 0 0
3:02 pm 15:02 Cloudy 63 17.2 54 12.2 73 73 N 10 17 30.21 1023 10 16.09344 0 0
3:54 pm 15:54 Cloudy 64 17.8 55 12.8 73 73 N 9 15 30.18 1022 10 16.09344 0 0
4:54 pm 16:54 Cloudy 67 19.4 56 13.3 68 68 NNE 7 11 30.18 1022 10 16.09344 0 0
5:54 pm 17:54 Cloudy 66 18.9 55 12.8 68 68 NE 7 11 30.21 1023 10 16.09344 0 0
6:54 pm 18:54 Cloudy 65 18.3 56 13.3 73 73 NE 5 7 30.24 1024 10 16.09344 0 0
7:54 pm 19:54 Cloudy 64 17.8 54 12.2 70 70 N 8 13 30.24 1024 10 16.09344 0 0
8:54 pm 20:54 Cloudy 62 16.7 55 12.8 78 78 NNE 7 11 30.27 1025 10 16.09344 0 0
9:54 pm 21:54 Partly Cloudy 60 15.6 54 12.2 80 80 N 6 9 30.3 1026 10 16.09344 0 0
10:54 pm 22:54 Cloudy 60 15.6 53 11.7 78 78 N 7 11 30.33 1027 10 16.09344 0 0
11:54 pm 23:54 Cloudy 59 15 52 11.1 78 78 N 8 13 30.36 1028 10 16.09344 0 0

Powered by AerisWeather